Time,TemperatureF,DewpointF,PressureIn,WindDirection,WindDirectionDegrees,WindSpeedMPH,WindSpeedGustMPH,Humidity,HourlyPrecipIn,Conditions,Clouds,dailyrainin,SolarRadiationWatts/m^2,SoftwareType,DateUTC
2013-01-16 00:00:00,29.5,20.2,30.26,North,5,1.0,2.0,68,0.00,,,0.00,0,Wunderground v.1.15,2013-01-16 05:00:00,
2013-01-16 00:01:00,29.5,20.2,30.26,North,5,1.0,2.0,68,0.00,,,0.00,0,Wunderground v.1.15,2013-01-16 05:01:00,
2013-01-16 00:03:00,29.5,20.2,30.25,NNE,33,1.0,2.0,68,0.00,,,0.00,0,Wunderground v.1.15,2013-01-16 05:03:00,
2013-01-16 00:08:00,29.5,20.2,30.26,North,9,1.0,2.0,68,0.00,,,0.00,0,Wunderground v.1.15,2013-01-16 05:08:00,
2013-01-16 00:09:00,29.5,20.2,30.26,North,9,1.0,2.0,68,0.00,,,0.00,0,Wunderground v.1.15,2013-01-16 05:09:00,
2013-01-16 00:14:00,29.5,20.2,30.26,NNE,30,1.0,2.0,68,0.00,,,0.00,0,Wunderground v.1.15,2013-01-16 05:14:00,
2013-01-16 00:20:00,29.5,20.2,30.27,NNE,32,0.0,0.0,68,0.00,,,0.00,0,Wunderground v.1.15,2013-01-16 05:20:00,
2013-01-16 00:25:00,29.5,20.2,30.27,NE,46,0.0,1.0,68,0.00,,,0.00,0,Wunderground v.1.15,2013-01-16 05:25:00,
2013-01-16 00:31:00,29.5,20.2,30.26,NE,40,0.0,2.0,68,0.00,,,0.00,0,Wunderground v.1.15,2013-01-16 05:31:00,
2013-01-16 00:36:00,29.4,20.1,30.27,NNE,32,0.0,2.0,68,0.00,,,0.00,0,Wunderground v.1.15,2013-01-16 05:36:00,
2013-01-16 00:42:00,29.4,20.5,30.27,NNE,32,0.0,0.0,69,0.00,,,0.00,0,Wunderground v.1.15,2013-01-16 05:42:00,
2013-01-16 00:47:00,29.4,20.5,30.26,NNE,32,0.0,1.0,69,0.00,,,0.00,0,Wunderground v.1.15,2013-01-16 05:47:00,
2013-01-16 00:52:00,29.3,20.4,30.26,NNE,32,0.0,1.0,69,0.00,,,0.00,0,Wunderground v.1.15,2013-01-16 05:52:00,
2013-01-16 00:57:00,29.3,20.4,30.26,NNE,32,0.0,1.0,69,0.00,,,0.00,0,Wunderground v.1.15,2013-01-16 05:57:00,
2013-01-16 01:03:00,29.3,20.4,30.26,NNE,32,0.0,0.0,69,0.00,,,0.00,0,Wunderground v.1.15,2013-01-16 06:03:00,
2013-01-16 01:09:00,29.3,20.0,30.26,NE,49,0.0,0.0,68,0.00,,,0.00,0,Wunderground v.1.15,2013-01-16 06:09:00,
2013-01-16 01:14:00,29.4,20.1,30.27,NE,51,0.0,0.0,68,0.00,,,0.00,0,Wunderground v.1.15,2013-01-16 06:14:00,
2013-01-16 01:19:00,29.4,20.1,30.27,NE,51,0.0,0.0,68,0.00,,,0.00,0,Wunderground v.1.15,2013-01-16 06:19:00,
2013-01-16 01:24:00,29.4,20.8,30.27,NE,51,0.0,0.0,70,0.00,,,0.00,0,Wunderground v.1.15,2013-01-16 06:24:00,
2013-01-16 01:30:00,29.3,20.7,30.28,NE,51,0.0,0.0,70,0.00,,,0.00,0,Wunderground v.1.15,2013-01-16 06:30:00,
2013-01-16 01:36:00,29.3,20.7,30.27,NE,51,0.0,0.0,70,0.00,,,0.00,0,Wunderground v.1.15,2013-01-16 06:36:00,
2013-01-16 01:42:00,29.3,20.4,30.27,NE,51,0.0,0.0,69,0.00,,,0.00,0,Wunderground v.1.15,2013-01-16 06:42:00,
2013-01-16 01:47:00,29.3,20.4,30.27,NE,51,0.0,0.0,69,0.00,,,0.00,0,Wunderground v.1.15,2013-01-16 06:47:00,
2013-01-16 01:52:00,29.2,20.3,30.26,NE,51,0.0,1.0,69,0.00,,,0.00,0,Wunderground v.1.15,2013-01-16 06:52:00,
2013-01-16 01:58:00,29.2,20.6,30.26,NE,55,0.0,1.0,70,0.00,,,0.00,0,Wunderground v.1.15,2013-01-16 06:58:00,
2013-01-16 02:04:00,29.4,20.5,30.26,NE,55,0.0,0.0,69,0.00,,,0.00,0,Wunderground v.1.15,2013-01-16 07:04:00,
2013-01-16 02:09:00,29.4,20.8,30.26,NE,55,0.0,1.0,70,0.00,,,0.00,0,Wunderground v.1.15,2013-01-16 07:09:00,
2013-01-16 02:14:00,29.3,20.7,30.26,ENE,59,0.0,2.0,70,0.00,,,0.00,0,Wunderground v.1.15,2013-01-16 07:14:00,
2013-01-16 02:19:00,29.3,20.7,30.26,ENE,59,0.0,2.0,70,0.00,,,0.00,0,Wunderground v.1.15,2013-01-16 07:19:00,
2013-01-16 02:24:00,29.4,20.8,30.26,NNE,26,0.0,2.0,70,0.00,,,0.00,0,Wunderground v.1.15,2013-01-16 07:24:00,
2013-01-16 02:29:00,29.4,20.8,30.25,ENE,65,0.0,2.0,70,0.00,,,0.00,0,Wunderground v.1.15,2013-01-16 07:29:00,
2013-01-16 02:35:00,29.6,20.7,30.24,East,94,0.0,3.0,69,0.00,,,0.00,0,Wunderground v.1.15,2013-01-16 07:35:00,
2013-01-16 02:41:00,29.6,20.7,30.24,ESE,123,0.0,0.0,69,0.00,,,0.00,0,Wunderground v.1.15,2013-01-16 07:41:00,
2013-01-16 02:46:00,29.7,20.8,30.24,ENE,59,0.0,1.0,69,0.00,,,0.00,0,Wunderground v.1.15,2013-01-16 07:46:00,
2013-01-16 02:52:00,29.8,20.9,30.25,ESE,121,1.0,1.0,69,0.00,,,0.00,0,Wunderground v.1.15,2013-01-16 07:52:00,
2013-01-16 02:58:00,29.9,21.0,30.25,East,101,0.0,2.0,69,0.00,,,0.00,0,Wunderground v.1.15,2013-01-16 07:58:00,
2013-01-16 03:03:00,29.9,21.0,30.24,SSE,162,1.0,1.0,69,0.00,,,0.00,0,Wunderground v.1.15,2013-01-16 08:03:00,
2013-01-16 03:08:00,29.9,21.3,30.24,SSE,161,0.0,1.0,70,0.00,,,0.00,0,Wunderground v.1.15,2013-01-16 08:08:00,
2013-01-16 03:13:00,29.8,21.5,30.23,SSE,161,0.0,0.0,71,0.00,,,0.00,0,Wunderground v.1.15,2013-01-16 08:13:00,
2013-01-16 03:19:00,29.7,21.4,30.23,SSE,161,0.0,0.0,71,0.00,,,0.00,0,Wunderground v.1.15,2013-01-16 08:19:00,
2013-01-16 03:25:00,29.9,21.6,30.24,SSE,155,0.0,1.0,71,0.00,,,0.00,0,Wunderground v.1.15,2013-01-16 08:25:00,
2013-01-16 03:31:00,29.9,21.6,30.23,SSE,155,0.0,0.0,71,0.00,,,0.00,0,Wunderground v.1.15,2013-01-16 08:31:00,
2013-01-16 03:36:00,29.9,21.6,30.22,SSE,155,0.0,1.0,71,0.00,,,0.00,0,Wunderground v.1.15,2013-01-16 08:36:00,
2013-01-16 03:42:00,29.9,21.6,30.22,SSE,150,0.0,3.0,71,0.00,,,0.00,0,Wunderground v.1.15,2013-01-16 08:42:00,
2013-01-16 03:48:00,29.9,22.0,30.21,SSE,155,1.0,3.0,72,0.00,,,0.00,0,Wunderground v.1.15,2013-01-16 08:48:00,
2013-01-16 03:53:00,29.9,22.0,30.22,South,180,1.0,1.0,72,0.00,,,0.00,0,Wunderground v.1.15,2013-01-16 08:53:00,
2013-01-16 03:58:00,29.9,22.3,30.22,South,180,0.0,1.0,73,0.00,,,0.00,0,Wunderground v.1.15,2013-01-16 08:58:00,
2013-01-16 04:03:00,29.8,22.2,30.22,South,180,0.0,0.0,73,0.00,,,0.00,0,Wunderground v.1.15,2013-01-16 09:03:00,
2013-01-16 04:08:00,29.8,22.5,30.21,South,180,0.0,0.0,74,0.00,,,0.00,0,Wunderground v.1.15,2013-01-16 09:08:00,
2013-01-16 04:13:00,29.9,22.3,30.20,SSE,164,0.0,3.0,73,0.00,,,0.00,0,Wunderground v.1.15,2013-01-16 09:13:00,
2013-01-16 04:19:00,30.0,22.1,30.21,South,169,0.0,3.0,72,0.00,,,0.00,0,Wunderground v.1.15,2013-01-16 09:19:00,
2013-01-16 04:24:00,30.0,22.1,30.20,ESE,123,0.0,0.0,72,0.00,,,0.00,0,Wunderground v.1.15,2013-01-16 09:24:00,
2013-01-16 04:30:00,30.1,22.2,30.20,ESE,123,0.0,0.0,72,0.00,,,0.00,0,Wunderground v.1.15,2013-01-16 09:30:00,
2013-01-16 04:35:00,30.3,21.7,30.20,SSE,149,0.0,1.0,70,0.00,,,0.00,0,Wunderground v.1.15,2013-01-16 09:35:00,
2013-01-16 04:40:00,30.4,21.4,30.20,SSE,148,0.0,0.0,69,0.00,,,0.00,0,Wunderground v.1.15,2013-01-16 09:40:00,
2013-01-16 04:45:00,30.4,21.1,30.19,SE,127,1.0,2.0,68,0.00,,,0.00,0,Wunderground v.1.15,2013-01-16 09:45:00,
2013-01-16 04:51:00,30.5,21.2,30.19,SE,126,1.0,4.0,68,0.00,,,0.00,0,Wunderground v.1.15,2013-01-16 09:51:00,
2013-01-16 04:56:00,30.5,21.2,30.18,SE,136,1.0,4.0,68,0.00,,,0.00,0,Wunderground v.1.15,2013-01-16 09:56:00,
2013-01-16 05:02:00,30.5,21.2,30.18,SE,136,0.0,1.0,68,0.00,,,0.00,0,Wunderground v.1.15,2013-01-16 10:02:00,
2013-01-16 05:07:00,30.5,20.8,30.19,ESE,121,0.0,2.0,67,0.00,,,0.00,0,Wunderground v.1.15,2013-01-16 10:07:00,
2013-01-16 05:12:00,30.5,20.8,30.18,ESE,113,0.0,1.0,67,0.00,,,0.00,0,Wunderground v.1.15,2013-01-16 10:12:00,
2013-01-16 05:17:00,30.6,20.9,30.18,ESE,110,1.0,3.0,67,0.00,,,0.00,0,Wunderground v.1.15,2013-01-16 10:17:00,
2013-01-16 05:22:00,30.6,20.9,30.18,ESE,105,1.0,2.0,67,0.00,,,0.00,0,Wunderground v.1.15,2013-01-16 10:22:00,
2013-01-16 05:27:00,30.6,20.9,30.18,ESE,105,0.0,2.0,67,0.00,,,0.00,0,Wunderground v.1.15,2013-01-16 10:27:00,
2013-01-16 05:33:00,30.6,20.9,30.18,ESE,105,0.0,1.0,67,0.00,,,0.00,0,Wunderground v.1.15,2013-01-16 10:33:00,
2013-01-16 05:38:00,30.6,21.3,30.18,NE,46,0.0,1.0,68,0.00,,,0.00,0,Wunderground v.1.15,2013-01-16 10:38:00,
2013-01-16 05:43:00,30.6,20.9,30.18,NE,35,0.0,1.0,67,0.00,,,0.00,0,Wunderground v.1.15,2013-01-16 10:43:00,
2013-01-16 05:48:00,30.6,20.9,30.18,NE,35,0.0,1.0,67,0.00,,,0.00,0,Wunderground v.1.15,2013-01-16 10:48:00,
2013-01-16 05:53:00,30.6,21.3,30.17,NE,39,0.0,1.0,68,0.00,,,0.00,0,Wunderground v.1.15,2013-01-16 10:53:00,
2013-01-16 05:59:00,30.6,20.9,30.17,NE,39,0.0,1.0,67,0.00,,,0.00,0,Wunderground v.1.15,2013-01-16 10:59:00,
2013-01-16 06:04:00,30.6,20.9,30.18,NE,37,0.0,2.0,67,0.00,,,0.00,0,Wunderground v.1.15,2013-01-16 11:04:00,
2013-01-16 06:09:00,30.6,20.9,30.17,NE,37,0.0,2.0,67,0.00,,,0.00,0,Wunderground v.1.15,2013-01-16 11:09:00,
2013-01-16 06:14:00,30.6,20.9,30.16,ENE,67,0.0,1.0,67,0.00,,,0.00,0,Wunderground v.1.15,2013-01-16 11:14:00,
2013-01-16 06:20:00,30.7,21.0,30.16,NE,43,0.0,0.0,67,0.00,,,0.00,0,Wunderground v.1.15,2013-01-16 11:20:00,
2013-01-16 06:25:00,30.7,21.0,30.17,NNE,32,0.0,1.0,67,0.00,,,0.00,0,Wunderground v.1.15,2013-01-16 11:25:00,
2013-01-16 06:30:00,30.6,21.3,30.16,North,349,1.0,1.0,68,0.00,,,0.00,0,Wunderground v.1.15,2013-01-16 11:30:00,
2013-01-16 06:36:00,30.5,21.5,30.16,North,349,1.0,2.0,69,0.00,,,0.00,0,Wunderground v.1.15,2013-01-16 11:36:00,
2013-01-16 06:42:00,30.3,21.7,30.17,North,349,0.0,1.0,70,0.00,,,0.00,0,Wunderground v.1.15,2013-01-16 11:42:00,
2013-01-16 06:47:00,30.3,21.7,30.16,North,10,1.0,2.0,70,0.00,,,0.00,0,Wunderground v.1.15,2013-01-16 11:47:00,
2013-01-16 06:53:00,30.3,21.7,30.17,North,355,1.0,2.0,70,0.00,,,0.00,0,Wunderground v.1.15,2013-01-16 11:53:00,
2013-01-16 06:58:00,30.3,21.7,30.16,North,355,0.0,2.0,70,0.00,,,0.00,0,Wunderground v.1.15,2013-01-16 11:58:00,
2013-01-16 07:03:00,30.3,21.7,30.16,North,355,0.0,1.0,70,0.00,,,0.00,0,Wunderground v.1.15,2013-01-16 12:03:00,
2013-01-16 07:09:00,30.3,21.3,30.16,NE,55,1.0,2.0,69,0.00,,,0.00,0,Wunderground v.1.15,2013-01-16 12:09:00,
2013-01-16 07:14:00,30.6,22.6,30.16,ENE,61,2.0,5.0,72,0.00,,,0.00,0,Wunderground v.1.15,2013-01-16 12:14:00,
2013-01-16 07:19:00,30.6,23.0,30.16,East,100,2.0,5.0,73,0.00,,,0.00,0,Wunderground v.1.15,2013-01-16 12:19:00,
2013-01-16 07:24:00,30.4,23.4,30.16,SE,141,1.0,2.0,75,0.00,,,0.00,0,Wunderground v.1.15,2013-01-16 12:24:00,
2013-01-16 07:30:00,30.1,24.1,30.17,ESE,118,1.0,1.0,78,0.00,,,0.00,0,Wunderground v.1.15,2013-01-16 12:30:00,
2013-01-16 07:36:00,29.7,24.3,30.16,SSE,149,1.0,3.0,80,0.00,,,0.00,0,Wunderground v.1.15,2013-01-16 12:36:00,
2013-01-16 07:41:00,29.2,25.0,30.16,SSE,150,1.0,1.0,84,0.00,,,0.00,0,Wunderground v.1.15,2013-01-16 12:41:00,
2013-01-16 07:47:00,28.8,25.7,30.16,SSE,148,0.0,1.0,88,0.00,,,0.00,7,Wunderground v.1.15,2013-01-16 12:47:00,
2013-01-16 07:53:00,28.7,26.1,30.15,East,79,0.0,2.0,90,0.00,,,0.01,11,Wunderground v.1.15,2013-01-16 12:53:00,
2013-01-16 07:58:00,28.8,26.5,30.15,East,101,0.0,2.0,91,0.00,,,0.01,11,Wunderground v.1.15,2013-01-16 12:58:00,
2013-01-16 08:04:00,28.9,26.9,30.16,SSE,166,0.0,2.0,92,0.00,,,0.01,11,Wunderground v.1.15,2013-01-16 13:04:00,
2013-01-16 08:09:00,28.9,26.9,30.15,NE,45,1.0,2.0,92,0.00,,,0.01,11,Wunderground v.1.15,2013-01-16 13:09:00,
2013-01-16 08:15:00,28.9,27.1,30.15,NNE,12,1.0,2.0,93,0.00,,,0.02,16,Wunderground v.1.15,2013-01-16 13:15:00,
2013-01-16 08:20:00,28.9,27.1,30.14,NE,42,1.0,2.0,93,0.00,,,0.02,19,Wunderground v.1.15,2013-01-16 13:20:00,
2013-01-16 08:25:00,28.9,27.1,30.15,NE,42,1.0,5.0,93,0.00,,,0.02,21,Wunderground v.1.15,2013-01-16 13:25:00,
2013-01-16 08:31:00,28.9,27.1,30.15,North,355,1.0,1.0,93,0.00,,,0.02,25,Wunderground v.1.15,2013-01-16 13:31:00,
2013-01-16 08:37:00,28.9,27.1,30.15,NE,42,1.0,1.0,93,0.00,,,0.02,28,Wunderground v.1.15,2013-01-16 13:37:00,
2013-01-16 08:42:00,28.9,27.1,30.14,NE,54,1.0,1.0,93,0.00,,,0.02,25,Wunderground v.1.15,2013-01-16 13:42:00,
2013-01-16 08:48:00,28.9,27.1,30.15,North,355,1.0,3.0,93,0.00,,,0.02,19,Wunderground v.1.15,2013-01-16 13:48:00,
2013-01-16 08:54:00,29.0,27.2,30.15,ENE,72,1.0,3.0,93,0.00,,,0.02,21,Wunderground v.1.15,2013-01-16 13:54:00,
2013-01-16 08:59:00,29.1,27.3,30.14,NE,50,2.0,4.0,93,0.00,,,0.02,26,Wunderground v.1.15,2013-01-16 13:59:00,
2013-01-16 09:04:00,29.2,27.4,30.13,NE,49,2.0,4.0,93,0.00,,,0.02,26,Wunderground v.1.15,2013-01-16 14:04:00,
2013-01-16 09:10:00,29.3,27.5,30.13,ENE,66,1.0,2.0,93,0.00,,,0.02,23,Wunderground v.1.15,2013-01-16 14:10:00,
2013-01-16 09:16:00,29.3,27.5,30.12,SE,138,2.0,3.0,93,0.00,,,0.02,19,Wunderground v.1.15,2013-01-16 14:16:00,
2013-01-16 09:21:00,29.4,27.9,30.12,NNW,348,2.0,3.0,94,0.00,,,0.02,19,Wunderground v.1.15,2013-01-16 14:21:00,
2013-01-16 09:27:00,29.5,28.0,30.12,East,89,1.0,3.0,94,0.00,,,0.03,26,Wunderground v.1.15,2013-01-16 14:27:00,
2013-01-16 09:33:00,29.6,28.1,30.11,NE,53,1.0,3.0,94,0.00,,,0.03,28,Wunderground v.1.15,2013-01-16 14:33:00,
2013-01-16 09:38:00,29.7,28.2,30.10,NNE,19,1.0,5.0,94,0.00,,,0.03,28,Wunderground v.1.15,2013-01-16 14:38:00,
2013-01-16 09:43:00,29.8,28.3,30.10,ENE,60,1.0,3.0,94,0.00,,,0.03,21,Wunderground v.1.15,2013-01-16 14:43:00,
2013-01-16 09:49:00,29.9,28.4,30.09,East,87,1.0,3.0,94,0.00,,,0.03,21,Wunderground v.1.15,2013-01-16 14:49:00,
2013-01-16 09:55:00,30.0,28.5,30.09,NE,42,1.0,3.0,94,0.00,,,0.03,23,Wunderground v.1.15,2013-01-16 14:55:00,
2013-01-16 10:00:00,30.1,28.6,30.09,NNE,20,1.0,2.0,94,0.00,,,0.03,25,Wunderground v.1.15,2013-01-16 15:00:00,
2013-01-16 10:05:00,30.1,28.6,30.09,NE,40,1.0,3.0,94,0.00,,,0.03,26,Wunderground v.1.15,2013-01-16 15:05:00,
2013-01-16 10:11:00,30.2,28.7,30.08,NE,38,1.0,2.0,94,0.00,,,0.04,26,Wunderground v.1.15,2013-01-16 15:11:00,
2013-01-16 10:17:00,30.4,28.9,30.08,NNE,24,2.0,5.0,94,0.00,,,0.04,32,Wunderground v.1.15,2013-01-16 15:17:00,
2013-01-16 10:22:00,30.5,29.0,30.07,ENE,74,2.0,4.0,94,0.00,,,0.04,37,Wunderground v.1.15,2013-01-16 15:22:00,
2013-01-16 10:28:00,30.6,29.1,30.07,North,355,1.0,4.0,94,0.00,,,0.04,37,Wunderground v.1.15,2013-01-16 15:28:00,
2013-01-16 10:33:00,30.7,29.2,30.06,NNE,13,1.0,3.0,94,0.00,,,0.04,37,Wunderground v.1.15,2013-01-16 15:33:00,
2013-01-16 10:38:00,30.7,29.2,30.06,NE,44,1.0,3.0,94,0.00,,,0.04,33,Wunderground v.1.15,2013-01-16 15:38:00,
2013-01-16 10:43:00,30.7,29.2,30.06,North,355,1.0,3.0,94,0.00,,,0.04,32,Wunderground v.1.15,2013-01-16 15:43:00,
2013-01-16 10:49:00,30.7,29.2,30.05,ENE,66,2.0,4.0,94,0.00,,,0.04,44,Wunderground v.1.15,2013-01-16 15:49:00,
2013-01-16 10:54:00,30.8,29.5,30.03,North,5,3.0,5.0,95,0.00,,,0.04,51,Wunderground v.1.15,2013-01-16 15:54:00,
2013-01-16 11:00:00,31.0,29.7,30.03,ENE,69,2.0,2.0,95,0.00,,,0.04,44,Wunderground v.1.15,2013-01-16 16:00:00,
2013-01-16 11:06:00,31.0,29.7,30.02,NE,42,2.0,7.0,95,0.00,,,0.05,42,Wunderground v.1.15,2013-01-16 16:06:00,
2013-01-16 11:11:00,31.1,29.6,30.01,ENE,66,2.0,4.0,94,0.00,,,0.05,44,Wunderground v.1.15,2013-01-16 16:11:00,
2013-01-16 11:16:00,31.2,29.7,30.02,ENE,63,2.0,4.0,94,0.00,,,0.05,40,Wunderground v.1.15,2013-01-16 16:16:00,
2013-01-16 11:21:00,31.3,29.8,30.03,North,5,2.0,3.0,94,0.00,,,0.05,39,Wunderground v.1.15,2013-01-16 16:21:00,
2013-01-16 11:26:00,31.4,30.1,30.02,NE,55,2.0,5.0,95,0.00,,,0.05,39,Wunderground v.1.15,2013-01-16 16:26:00,
2013-01-16 11:32:00,31.5,30.2,30.02,North,355,2.0,4.0,95,0.00,,,0.05,46,Wunderground v.1.15,2013-01-16 16:32:00,
2013-01-16 11:37:00,31.5,30.2,30.01,North,360,1.0,4.0,95,0.00,,,0.05,47,Wunderground v.1.15,2013-01-16 16:37:00,
2013-01-16 11:43:00,31.6,30.3,30.00,ENE,59,2.0,4.0,95,0.00,,,0.05,54,Wunderground v.1.15,2013-01-16 16:43:00,
2013-01-16 11:48:00,31.6,30.3,29.99,East,82,2.0,6.0,95,0.00,,,0.05,60,Wunderground v.1.15,2013-01-16 16:48:00,
2013-01-16 11:53:00,31.6,30.3,29.98,ENE,61,2.0,5.0,95,0.00,,,0.05,77,Wunderground v.1.15,2013-01-16 16:53:00,
2013-01-16 11:59:00,31.6,30.1,29.98,ESE,121,3.0,7.0,94,0.00,,,0.05,67,Wunderground v.1.15,2013-01-16 16:59:00,
2013-01-16 12:05:00,31.6,30.1,29.98,ENE,58,3.0,5.0,94,0.00,,,0.05,67,Wunderground v.1.15,2013-01-16 17:05:00,
2013-01-16 12:10:00,31.6,30.1,29.97,NNE,33,4.0,4.0,94,0.00,,,0.05,83,Wunderground v.1.15,2013-01-16 17:10:00,
2013-01-16 12:16:00,31.6,30.1,29.97,ENE,67,3.0,5.0,94,0.00,,,0.05,91,Wunderground v.1.15,2013-01-16 17:16:00,
2013-01-16 12:21:00,31.7,30.2,29.96,East,84,2.0,3.0,94,0.00,,,0.05,67,Wunderground v.1.15,2013-01-16 17:21:00,
2013-01-16 12:26:00,31.6,30.1,29.96,NE,36,3.0,5.0,94,0.00,,,0.05,51,Wunderground v.1.15,2013-01-16 17:26:00,
2013-01-16 12:31:00,31.6,30.1,29.97,NE,36,3.0,3.0,94,0.00,,,0.05,65,Wunderground v.1.15,2013-01-16 17:31:00,
2013-01-16 12:37:00,31.6,30.3,29.97,NNE,33,3.0,5.0,95,0.00,,,0.05,47,Wunderground v.1.15,2013-01-16 17:37:00,
2013-01-16 12:42:00,31.6,30.3,29.96,ENE,61,3.0,3.0,95,0.00,,,0.05,37,Wunderground v.1.15,2013-01-16 17:42:00,
2013-01-16 12:47:00,31.6,30.3,29.96,NE,44,3.0,4.0,95,0.00,,,0.05,47,Wunderground v.1.15,2013-01-16 17:47:00,
2013-01-16 12:52:00,31.6,30.3,29.95,North,5,2.0,2.0,95,0.00,,,0.05,39,Wunderground v.1.15,2013-01-16 17:52:00,
2013-01-16 12:58:00,31.6,30.3,29.95,NNW,346,1.0,2.0,95,0.00,,,0.06,46,Wunderground v.1.15,2013-01-16 17:58:00,
2013-01-16 13:04:00,31.7,30.4,29.95,NE,42,1.0,3.0,95,0.00,,,0.06,33,Wunderground v.1.15,2013-01-16 18:04:00,
2013-01-16 13:10:00,31.7,30.4,29.94,ENE,58,1.0,1.0,95,0.04,,,0.07,51,Wunderground v.1.15,2013-01-16 18:10:00,
2013-01-16 13:15:00,31.7,30.7,29.95,NNE,28,1.0,3.0,96,0.04,,,0.07,44,Wunderground v.1.15,2013-01-16 18:15:00,
2013-01-16 13:20:00,31.8,30.8,29.94,ENE,57,1.0,2.0,96,0.04,,,0.07,54,Wunderground v.1.15,2013-01-16 18:20:00,
2013-01-16 13:25:00,31.8,30.8,29.93,East,92,2.0,3.0,96,0.04,,,0.08,56,Wunderground v.1.15,2013-01-16 18:25:00,
2013-01-16 13:30:00,31.9,30.9,29.93,East,88,2.0,2.0,96,0.04,,,0.08,53,Wunderground v.1.15,2013-01-16 18:30:00,
2013-01-16 13:36:00,31.9,30.9,29.92,ENE,57,2.0,3.0,96,0.05,,,0.09,60,Wunderground v.1.15,2013-01-16 18:36:00,
2013-01-16 13:41:00,31.9,30.9,29.93,East,80,2.0,2.0,96,0.05,,,0.09,46,Wunderground v.1.15,2013-01-16 18:41:00,
2013-01-16 13:47:00,31.9,30.9,29.93,ENE,63,2.0,3.0,96,0.04,,,0.09,53,Wunderground v.1.15,2013-01-16 18:47:00,
2013-01-16 13:52:00,31.9,30.9,29.92,ENE,72,2.0,3.0,96,0.00,,,0.09,60,Wunderground v.1.15,2013-01-16 18:52:00,
2013-01-16 13:58:00,32.0,31.0,29.91,NE,42,1.0,3.0,96,0.00,,,0.10,70,Wunderground v.1.15,2013-01-16 18:58:00,
2013-01-16 14:04:00,32.0,31.0,29.91,North,360,1.0,2.0,96,0.00,,,0.10,65,Wunderground v.1.15,2013-01-16 19:04:00,
2013-01-16 14:09:00,32.1,31.1,29.91,East,85,1.0,3.0,96,0.00,,,0.10,56,Wunderground v.1.15,2013-01-16 19:09:00,
2013-01-16 14:14:00,32.1,31.1,29.90,ENE,58,1.0,3.0,96,0.00,,,0.10,58,Wunderground v.1.15,2013-01-16 19:14:00,
2013-01-16 14:20:00,32.2,31.2,29.90,ESE,105,1.0,3.0,96,0.00,,,0.10,49,Wunderground v.1.15,2013-01-16 19:20:00,
2013-01-16 14:26:00,32.2,31.2,29.89,ENE,74,2.0,3.0,96,0.00,,,0.10,54,Wunderground v.1.15,2013-01-16 19:26:00,
2013-01-16 14:31:00,32.2,31.2,29.89,East,88,2.0,2.0,96,0.00,,,0.11,47,Wunderground v.1.15,2013-01-16 19:31:00,
2013-01-16 14:36:00,32.2,31.2,29.89,NE,54,1.0,2.0,96,0.00,,,0.11,53,Wunderground v.1.15,2013-01-16 19:36:00,
2013-01-16 14:41:00,32.3,31.3,29.88,ENE,76,1.0,1.0,96,0.00,,,0.11,47,Wunderground v.1.15,2013-01-16 19:41:00,
2013-01-16 14:46:00,32.3,31.3,29.87,East,84,1.0,2.0,96,0.00,,,0.11,40,Wunderground v.1.15,2013-01-16 19:46:00,
2013-01-16 14:51:00,32.3,31.3,29.86,ENE,65,2.0,2.0,96,0.00,,,0.12,44,Wunderground v.1.15,2013-01-16 19:51:00,
2013-01-16 14:56:00,32.3,31.3,29.87,East,85,2.0,4.0,96,0.00,,,0.12,40,Wunderground v.1.15,2013-01-16 19:56:00,
2013-01-16 15:01:00,32.4,31.4,29.88,ENE,70,2.0,3.0,96,0.00,,,0.12,28,Wunderground v.1.15,2013-01-16 20:01:00,
2013-01-16 15:06:00,32.4,31.6,29.88,NE,46,1.0,3.0,97,0.04,,,0.13,23,Wunderground v.1.15,2013-01-16 20:06:00,
2013-01-16 15:12:00,32.4,31.6,29.88,ENE,58,0.0,1.0,97,0.04,,,0.13,21,Wunderground v.1.15,2013-01-16 20:12:00,
2013-01-16 15:17:00,32.4,31.6,29.87,ENE,71,0.0,2.0,97,0.04,,,0.13,21,Wunderground v.1.15,2013-01-16 20:17:00,
2013-01-16 15:23:00,32.3,31.5,29.86,East,98,0.0,1.0,97,0.00,,,0.13,19,Wunderground v.1.15,2013-01-16 20:23:00,
2013-01-16 15:28:00,32.4,31.6,29.86,NE,56,0.0,2.0,97,0.00,,,0.13,16,Wunderground v.1.15,2013-01-16 20:28:00,
2013-01-16 15:33:00,32.4,31.6,29.86,North,5,0.0,1.0,97,0.00,,,0.13,12,Wunderground v.1.15,2013-01-16 20:33:00,
2013-01-16 15:38:00,32.4,31.6,29.87,NNW,345,0.0,1.0,97,0.00,,,0.13,12,Wunderground v.1.15,2013-01-16 20:38:00,
2013-01-16 15:43:00,32.5,31.7,29.87,NNW,348,1.0,1.0,97,0.00,,,0.13,12,Wunderground v.1.15,2013-01-16 20:43:00,
2013-01-16 15:48:00,32.4,31.6,29.87,NNW,342,1.0,1.0,97,0.00,,,0.13,11,Wunderground v.1.15,2013-01-16 20:48:00,
2013-01-16 15:54:00,32.4,31.6,29.85,NNW,342,0.0,1.0,97,0.00,,,0.13,9,Wunderground v.1.15,2013-01-16 20:54:00,
2013-01-16 15:59:00,32.4,31.6,29.86,North,355,0.0,2.0,97,0.00,,,0.13,7,Wunderground v.1.15,2013-01-16 20:59:00,
2013-01-16 16:05:00,32.4,31.6,29.85,NNW,336,1.0,2.0,97,0.00,,,0.13,5,Wunderground v.1.15,2013-01-16 21:05:00,
2013-01-16 16:10:00,32.4,31.6,29.85,ENE,58,1.0,1.0,97,0.00,,,0.13,0,Wunderground v.1.15,2013-01-16 21:10:00,
2013-01-16 16:16:00,32.4,31.6,29.85,NNE,22,0.0,1.0,97,0.00,,,0.13,0,Wunderground v.1.15,2013-01-16 21:16:00,
2013-01-16 16:21:00,32.4,31.6,29.85,North,10,0.0,0.0,97,0.00,,,0.13,0,Wunderground v.1.15,2013-01-16 21:21:00,
2013-01-16 16:27:00,32.4,31.6,29.85,North,5,0.0,1.0,97,0.00,,,0.14,0,Wunderground v.1.15,2013-01-16 21:27:00,
2013-01-16 16:33:00,32.3,31.5,29.85,North,5,0.0,1.0,97,0.00,,,0.14,0,Wunderground v.1.15,2013-01-16 21:33:00,
2013-01-16 16:38:00,32.4,31.6,29.86,NNE,15,0.0,1.0,97,0.00,,,0.14,0,Wunderground v.1.15,2013-01-16 21:38:00,
2013-01-16 16:43:00,32.4,31.6,29.84,NE,44,0.0,1.0,97,0.00,,,0.14,0,Wunderground v.1.15,2013-01-16 21:43:00,
2013-01-16 16:49:00,32.4,31.6,29.85,NNE,18,0.0,1.0,97,0.00,,,0.14,0,Wunderground v.1.15,2013-01-16 21:49:00,
2013-01-16 16:54:00,32.5,31.7,29.86,North,11,1.0,1.0,97,0.00,,,0.14,0,Wunderground v.1.15,2013-01-16 21:54:00,
2013-01-16 17:00:00,32.5,31.7,29.86,NNW,330,1.0,1.0,97,0.00,,,0.14,0,Wunderground v.1.15,2013-01-16 22:00:00,
2013-01-16 17:05:00,32.4,31.6,29.86,NNW,331,0.0,2.0,97,0.00,,,0.15,0,Wunderground v.1.15,2013-01-16 22:05:00,
2013-01-16 17:10:00,32.4,31.6,29.86,NNW,331,1.0,1.0,97,0.00,,,0.15,0,Wunderground v.1.15,2013-01-16 22:10:00,
2013-01-16 17:15:00,32.4,31.9,29.85,NNW,331,1.0,1.0,98,0.00,,,0.15,0,Wunderground v.1.15,2013-01-16 22:15:00,
2013-01-16 17:21:00,32.4,31.9,29.85,NNW,331,0.0,0.0,98,0.00,,,0.15,0,Wunderground v.1.15,2013-01-16 22:21:00,
2013-01-16 17:26:00,32.4,31.9,29.85,NNW,334,0.0,1.0,98,0.00,,,0.15,0,Wunderground v.1.15,2013-01-16 22:26:00,
2013-01-16 17:31:00,32.4,31.9,29.85,NNW,334,0.0,0.0,98,0.00,,,0.15,0,Wunderground v.1.15,2013-01-16 22:31:00,
2013-01-16 17:36:00,32.3,31.8,29.84,NNW,336,0.0,2.0,98,0.00,,,0.15,0,Wunderground v.1.15,2013-01-16 22:36:00,
2013-01-16 17:42:00,32.3,31.8,29.85,NNW,336,0.0,0.0,98,0.00,,,0.15,0,Wunderground v.1.15,2013-01-16 22:42:00,
2013-01-16 17:47:00,32.3,31.8,29.85,NNW,336,0.0,0.0,98,0.00,,,0.16,0,Wunderground v.1.15,2013-01-16 22:47:00,
2013-01-16 17:53:00,32.3,31.8,29.84,NNW,336,0.0,0.0,98,0.00,,,0.16,0,Wunderground v.1.15,2013-01-16 22:53:00,
2013-01-16 17:59:00,32.3,31.8,29.84,NNW,336,0.0,0.0,98,0.00,,,0.16,0,Wunderground v.1.15,2013-01-16 22:59:00,
2013-01-16 18:04:00,32.3,31.8,29.83,NNW,336,0.0,0.0,98,0.00,,,0.16,0,Wunderground v.1.15,2013-01-16 23:04:00,
2013-01-16 18:10:00,32.3,31.8,29.84,NNW,336,0.0,1.0,98,0.00,,,0.16,0,Wunderground v.1.15,2013-01-16 23:10:00,
2013-01-16 18:16:00,32.3,31.8,29.84,NNW,336,0.0,1.0,98,0.00,,,0.17,0,Wunderground v.1.15,2013-01-16 23:16:00,
2013-01-16 18:22:00,32.3,31.8,29.83,NNW,336,0.0,0.0,98,0.00,,,0.17,0,Wunderground v.1.15,2013-01-16 23:22:00,
2013-01-16 18:28:00,32.3,31.8,29.83,NNW,336,0.0,0.0,98,0.00,,,0.17,0,Wunderground v.1.15,2013-01-16 23:28:00,
2013-01-16 18:34:00,32.5,32.0,29.83,NNW,340,0.0,0.0,98,0.00,,,0.17,0,Wunderground v.1.15,2013-01-16 23:34:00,
2013-01-16 18:40:00,32.6,32.1,29.83,NNW,340,0.0,0.0,98,0.00,,,0.18,0,Wunderground v.1.15,2013-01-16 23:40:00,
2013-01-16 18:45:00,32.6,32.1,29.83,NNW,340,0.0,0.0,98,0.00,,,0.18,0,Wunderground v.1.15,2013-01-16 23:45:00,
2013-01-16 18:50:00,32.8,32.3,29.83,NNW,342,0.0,0.0,98,0.00,,,0.18,0,Wunderground v.1.15,2013-01-16 23:50:00,
2013-01-16 18:55:00,33.1,32.6,29.82,East,88,0.0,0.0,98,0.00,,,0.18,0,Wunderground v.1.15,2013-01-16 23:55:00,
2013-01-16 19:01:00,33.3,32.8,29.82,ESE,123,1.0,1.0,98,0.00,,,0.18,0,Wunderground v.1.15,2013-01-17 00:01:00,
2013-01-16 19:07:00,33.4,32.9,29.80,SE,130,1.0,2.0,98,0.00,,,0.18,0,Wunderground v.1.15,2013-01-17 00:07:00,
2013-01-16 19:12:00,33.6,33.1,29.81,ESE,123,1.0,2.0,98,0.00,,,0.18,0,Wunderground v.1.15,2013-01-17 00:12:00,
2013-01-16 19:17:00,33.7,33.2,29.81,ESE,123,1.0,2.0,98,0.00,,,0.18,0,Wunderground v.1.15,2013-01-17 00:17:00,
2013-01-16 19:22:00,33.6,33.1,29.80,SE,141,0.0,0.0,98,0.00,,,0.18,0,Wunderground v.1.15,2013-01-17 00:22:00,
2013-01-16 19:27:00,33.6,33.1,29.81,SE,141,0.0,1.0,98,0.00,,,0.18,0,Wunderground v.1.15,2013-01-17 00:27:00,
2013-01-16 19:32:00,33.5,33.0,29.81,SE,140,0.0,1.0,98,0.00,,,0.18,0,Wunderground v.1.15,2013-01-17 00:32:00,
2013-01-16 19:38:00,33.5,33.0,29.80,SE,140,0.0,1.0,98,0.00,,,0.18,0,Wunderground v.1.15,2013-01-17 00:38:00,
2013-01-16 19:43:00,33.4,32.9,29.80,SE,140,0.0,0.0,98,0.00,,,0.18,0,Wunderground v.1.15,2013-01-17 00:43:00,
2013-01-16 19:49:00,33.5,33.0,29.80,SE,140,0.0,0.0,98,0.00,,,0.18,0,Wunderground v.1.15,2013-01-17 00:49:00,
2013-01-16 19:54:00,33.7,33.2,29.80,SE,140,0.0,1.0,98,0.00,,,0.18,0,Wunderground v.1.15,2013-01-17 00:54:00,
2013-01-16 19:59:00,33.9,33.4,29.80,SE,140,0.0,1.0,98,0.00,,,0.18,0,Wunderground v.1.15,2013-01-17 00:59:00,
2013-01-16 20:04:00,33.9,33.4,29.80,SE,140,0.0,0.0,98,0.00,,,0.18,0,Wunderground v.1.15,2013-01-17 01:04:00,
2013-01-16 20:10:00,33.7,33.2,29.80,SE,140,0.0,0.0,98,0.00,,,0.18,0,Wunderground v.1.15,2013-01-17 01:10:00,
2013-01-16 20:15:00,33.2,32.7,29.80,West,261,0.0,1.0,98,0.00,,,0.18,0,Wunderground v.1.15,2013-01-17 01:15:00,
2013-01-16 20:21:00,32.9,32.4,29.80,West,261,1.0,1.0,98,0.00,,,0.18,0,Wunderground v.1.15,2013-01-17 01:21:00,
2013-01-16 20:26:00,33.1,32.6,29.80,NW,316,1.0,2.0,98,0.00,,,0.18,0,Wunderground v.1.15,2013-01-17 01:26:00,
2013-01-16 20:32:00,32.8,32.3,29.80,NW,316,0.0,1.0,98,0.00,,,0.18,0,Wunderground v.1.15,2013-01-17 01:32:00,
2013-01-16 20:38:00,32.9,32.4,29.79,NW,316,0.0,1.0,98,0.00,,,0.18,0,Wunderground v.1.15,2013-01-17 01:38:00,
2013-01-16 20:43:00,33.0,32.5,29.79,NW,316,0.0,0.0,98,0.00,,,0.18,0,Wunderground v.1.15,2013-01-17 01:43:00,
2013-01-16 20:48:00,32.9,32.4,29.79,NW,316,0.0,1.0,98,0.00,,,0.19,0,Wunderground v.1.15,2013-01-17 01:48:00,
2013-01-16 20:54:00,32.6,32.1,29.79,NW,316,0.0,1.0,98,0.00,,,0.19,0,Wunderground v.1.15,2013-01-17 01:54:00,
2013-01-16 20:59:00,32.6,32.1,29.78,NW,316,0.0,1.0,98,0.00,,,0.19,0,Wunderground v.1.15,2013-01-17 01:59:00,
2013-01-16 21:04:00,32.7,32.2,29.79,NW,316,0.0,0.0,98,0.00,,,0.19,0,Wunderground v.1.15,2013-01-17 02:04:00,
2013-01-16 21:09:00,32.6,32.1,29.79,NW,316,0.0,1.0,98,0.00,,,0.19,0,Wunderground v.1.15,2013-01-17 02:09:00,
2013-01-16 21:15:00,32.7,32.2,29.79,NW,317,1.0,2.0,98,0.00,,,0.20,0,Wunderground v.1.15,2013-01-17 02:15:00,
2013-01-16 21:20:00,32.7,32.2,29.79,North,350,1.0,2.0,98,0.00,,,0.20,0,Wunderground v.1.15,2013-01-17 02:20:00,
2013-01-16 21:26:00,32.9,32.4,29.79,NNW,348,1.0,2.0,98,0.00,,,0.20,0,Wunderground v.1.15,2013-01-17 02:26:00,
2013-01-16 21:31:00,32.9,32.4,29.78,NNW,348,1.0,2.0,98,0.04,,,0.21,0,Wunderground v.1.15,2013-01-17 02:31:00,
2013-01-16 21:37:00,33.0,32.5,29.78,North,349,1.0,2.0,98,0.04,,,0.21,0,Wunderground v.1.15,2013-01-17 02:37:00,
2013-01-16 21:43:00,32.9,32.4,29.78,North,349,1.0,2.0,98,0.04,,,0.21,0,Wunderground v.1.15,2013-01-17 02:43:00,
2013-01-16 21:48:00,32.9,32.4,29.78,North,349,1.0,2.0,98,0.00,,,0.21,0,Wunderground v.1.15,2013-01-17 02:48:00,
2013-01-16 21:53:00,32.9,32.4,29.78,North,349,0.0,1.0,98,0.00,,,0.21,0,Wunderground v.1.15,2013-01-17 02:53:00,
2013-01-16 21:59:00,32.9,32.4,29.78,North,355,0.0,1.0,98,0.00,,,0.22,0,Wunderground v.1.15,2013-01-17 02:59:00,
2013-01-16 22:04:00,32.8,32.3,29.78,North,355,0.0,3.0,98,0.00,,,0.22,0,Wunderground v.1.15,2013-01-17 03:04:00,
2013-01-16 22:10:00,32.8,32.3,29.77,North,9,1.0,1.0,98,0.00,,,0.22,0,Wunderground v.1.15,2013-01-17 03:10:00,
2013-01-16 22:15:00,32.7,32.5,29.77,North,9,1.0,1.0,99,0.00,,,0.22,0,Wunderground v.1.15,2013-01-17 03:15:00,
2013-01-16 22:20:00,32.7,32.5,29.77,North,9,0.0,1.0,99,0.00,,,0.22,0,Wunderground v.1.15,2013-01-17 03:20:00,
2013-01-16 22:25:00,32.7,32.5,29.76,North,355,1.0,3.0,99,0.00,,,0.22,0,Wunderground v.1.15,2013-01-17 03:25:00,
2013-01-16 22:30:00,32.6,32.4,29.76,North,355,1.0,1.0,99,0.00,,,0.22,0,Wunderground v.1.15,2013-01-17 03:30:00,
2013-01-16 22:35:00,32.6,32.4,29.77,North,355,0.0,1.0,99,0.00,,,0.22,0,Wunderground v.1.15,2013-01-17 03:35:00,
2013-01-16 22:41:00,32.5,32.3,29.77,NW,311,1.0,2.0,99,0.00,,,0.23,0,Wunderground v.1.15,2013-01-17 03:41:00,
2013-01-16 22:46:00,32.4,31.9,29.77,NW,311,1.0,2.0,98,0.00,,,0.23,0,Wunderground v.1.15,2013-01-17 03:46:00,
2013-01-16 22:51:00,32.3,31.8,29.77,North,5,1.0,1.0,98,0.00,,,0.23,0,Wunderground v.1.15,2013-01-17 03:51:00,
2013-01-16 22:56:00,32.3,32.1,29.77,North,355,1.0,1.0,99,0.00,,,0.24,0,Wunderground v.1.15,2013-01-17 03:56:00,
2013-01-16 23:01:00,32.2,32.0,29.76,North,5,1.0,2.0,99,0.12,,,0.25,0,Wunderground v.1.15,2013-01-17 04:01:00,
2013-01-16 23:06:00,32.2,32.0,29.76,NNW,340,1.0,2.0,99,0.07,,,0.25,0,Wunderground v.1.15,2013-01-17 04:06:00,
2013-01-16 23:11:00,32.2,32.0,29.76,NW,317,1.0,1.0,99,0.05,,,0.25,0,Wunderground v.1.15,2013-01-17 04:11:00,
2013-01-16 23:16:00,32.2,32.0,29.76,NW,322,0.0,1.0,99,0.00,,,0.25,0,Wunderground v.1.15,2013-01-17 04:16:00,
2013-01-16 23:21:00,32.1,31.9,29.76,NW,322,0.0,1.0,99,0.00,,,0.25,0,Wunderground v.1.15,2013-01-17 04:21:00,
2013-01-16 23:27:00,32.2,32.0,29.75,NW,322,0.0,1.0,99,0.00,,,0.25,0,Wunderground v.1.15,2013-01-17 04:27:00,
2013-01-16 23:32:00,32.2,32.0,29.76,NW,311,0.0,1.0,99,0.00,,,0.25,0,Wunderground v.1.15,2013-01-17 04:32:00,
2013-01-16 23:37:00,32.2,32.0,29.76,NW,311,1.0,1.0,99,0.00,,,0.25,0,Wunderground v.1.15,2013-01-17 04:37:00,
2013-01-16 23:42:00,32.1,31.9,29.76,NW,311,0.0,0.0,99,0.00,,,0.25,0,Wunderground v.1.15,2013-01-17 04:42:00,
2013-01-16 23:48:00,32.2,32.0,29.76,NW,312,0.0,0.0,99,0.00,,,0.25,0,Wunderground v.1.15,2013-01-17 04:48:00,
2013-01-16 23:53:00,32.2,32.0,29.76,NW,312,0.0,0.0,99,0.00,,,0.25,0,Wunderground v.1.15,2013-01-17 04:53:00,
2013-01-16 23:58:00,32.3,32.1,29.76,WNW,285,1.0,2.0,99,0.00,,,0.00,0,Wunderground v.1.15,2013-01-17 04:58:00,